Location: Wiesbaden
(50.0830°N, 8.2500°E)
Time: 22:18:01
(UTC+01:00)

ISS - Pass Details

Date: 09 November 2019
Orbit: 412 x 421 km, 51.6° (Epoch: 15 November)

Event Time Altitude Azimuth Distance (km) Brightness Sun altitude
Exits shadow 05:46:48 38° 240° (WSW) 664 -3.2 -16.6°
Maximum altitude 05:47:25 43° 209° (SSW) 608 -3.2 -16.5°
Drops below altitude 10° 05:50:38 10° 136° (SE) 1,499 -0.2 -16.0°
Sets 05:52:46 0° 130° (SE) 2,359 1.1 -15.6°
